TimeEST,TemperatureF,Dew PointF,Humidity,Sea Level PressureIn,VisibilityMPH,Wind Direction,Wind SpeedMPH,Gust SpeedMPH,PrecipitationIn,Events,Conditions,WindDirDegrees,DateUTC
12:28 AM,32.0,30.2,93,30.13,2.5,Calm,Calm,-,0.01,,Overcast,0,2013-01-30 05:28:00
12:51 AM,32.0,30.0,92,30.12,2.0,SSE,3.5,-,0.01,,Overcast,160,2013-01-30 05:51:00
1:14 AM,32.0,30.2,93,30.10,2.0,Calm,Calm,-,0.00,,Overcast,0,2013-01-30 06:14:00
1:22 AM,32.0,30.2,93,30.10,1.8,Calm,Calm,-,0.01,,Overcast,0,2013-01-30 06:22:00
1:40 AM,32.0,30.2,93,30.10,2.5,Calm,Calm,-,0.03,,Overcast,0,2013-01-30 06:40:00
1:51 AM,32.0,30.9,96,30.10,2.5,Calm,Calm,-,0.03,,Overcast,0,2013-01-30 06:51:00
2:00 AM,32.0,30.2,93,30.10,2.0,Calm,Calm,-,0.00,Rain,Light Freezing Rain,0,2013-01-30 07:00:00
2:41 AM,32.0,30.2,93,30.08,1.8,South,3.5,-,0.02,Rain,Light Freezing Rain,170,2013-01-30 07:41:00
2:51 AM,32.0,30.9,96,30.07,1.2,South,4.6,-,0.03,Rain,Light Freezing Rain,170,2013-01-30 07:51:00
3:16 AM,32.0,30.2,93,30.05,1.5,Calm,Calm,-,0.03,Rain,Light Freezing Rain,0,2013-01-30 08:16:00
3:23 AM,32.0,30.2,93,30.05,2.0,Calm,Calm,-,0.04,Rain,Light Freezing Rain,0,2013-01-30 08:23:00
3:51 AM,32.0,30.9,96,30.04,2.0,Calm,Calm,-,0.05,Rain,Light Freezing Rain,0,2013-01-30 08:51:00
4:00 AM,32.0,30.2,93,30.03,1.5,Calm,Calm,-,0.00,,Overcast,0,2013-01-30 09:00:00
4:20 AM,33.8,32.0,93,30.02,0.8,Calm,Calm,-,0.00,,Mist,0,2013-01-30 09:20:00
4:51 AM,33.1,32.0,96,30.01,0.5,Calm,Calm,-,0.00,Fog,Fog,0,2013-01-30 09:51:00
5:07 AM,33.8,32.0,93,30.00,0.2,Calm,Calm,-,N/A,Fog,Fog,0,2013-01-30 10:07:00
5:25 AM,33.8,32.0,93,30.00,0.5,Calm,Calm,-,N/A,Fog,Fog,0,2013-01-30 10:25:00
5:51 AM,33.1,32.0,96,29.99,0.5,Calm,Calm,-,N/A,Fog,Fog,0,2013-01-30 10:51:00
6:51 AM,33.1,32.0,96,29.96,1.0,Calm,Calm,-,N/A,,Mist,0,2013-01-30 11:51:00
7:01 AM,33.8,32.0,93,29.96,0.5,Calm,Calm,-,N/A,Fog,Fog,0,2013-01-30 12:01:00
7:26 AM,33.8,32.0,93,29.94,0.2,Calm,Calm,-,0.01,Fog,Fog,0,2013-01-30 12:26:00
7:51 AM,34.0,33.1,96,29.93,0.2,Calm,Calm,-,0.01,Fog,Fog,0,2013-01-30 12:51:00
8:51 AM,34.0,33.1,96,29.90,0.2,Calm,Calm,-,N/A,Fog,Fog,0,2013-01-30 13:51:00
9:51 AM,35.1,33.1,92,29.85,0.2,Calm,Calm,-,N/A,Fog,Fog,0,2013-01-30 14:51:00
10:51 AM,34.0,33.1,96,29.80,0.2,Calm,Calm,-,0.01,Fog,Fog,0,2013-01-30 15:51:00
11:51 AM,35.1,34.0,96,29.75,0.2,NW,4.6,-,N/A,Fog,Fog,320,2013-01-30 16:51:00
12:51 PM,36.0,35.1,97,29.71,0.2,Calm,Calm,-,N/A,Fog,Fog,0,2013-01-30 17:51:00
1:51 PM,37.0,36.0,96,29.65,0.2,Calm,Calm,-,N/A,Fog,Fog,0,2013-01-30 18:51:00
2:51 PM,37.9,37.0,97,29.61,0.2,Calm,Calm,-,N/A,Fog,Fog,0,2013-01-30 19:51:00
3:43 PM,39.2,37.4,93,29.58,0.2,NW,3.5,-,N/A,Fog,Fog,310,2013-01-30 20:43:00
3:51 PM,37.9,37.0,97,29.59,0.2,Variable,3.5,-,N/A,Fog,Fog,0,2013-01-30 20:51:00
3:58 PM,39.2,37.4,93,29.58,0.2,Calm,Calm,-,N/A,Fog,Fog,0,2013-01-30 20:58:00
5:38 PM,44.6,42.8,93,29.57,0.2,Calm,Calm,-,0.02,Fog,Fog,0,2013-01-30 22:38:00
5:51 PM,43.0,42.1,97,29.55,0.2,Calm,Calm,-,0.02,Fog,Fog,0,2013-01-30 22:51:00
6:06 PM,44.6,44.6,100,29.56,0.2,Calm,Calm,-,N/A,Fog,Fog,0,2013-01-30 23:06:00
6:25 PM,44.6,44.6,100,29.55,0.2,SSE,3.5,-,N/A,Fog,Fog,160,2013-01-30 23:25:00
6:51 PM,48.0,46.0,93,29.54,0.2,Calm,Calm,-,N/A,Fog,Fog,0,2013-01-30 23:51:00
7:11 PM,48.2,48.2,100,29.53,0.2,South,5.8,-,N/A,Fog,Fog,170,2013-01-31 00:11:00
7:25 PM,51.8,50.0,94,29.53,0.5,Variable,5.8,-,N/A,Fog,Fog,0,2013-01-31 00:25:00
7:35 PM,51.8,50.0,94,29.52,1.0,South,6.9,-,N/A,,Overcast,180,2013-01-31 00:35:00
7:51 PM,52.0,51.1,97,29.52,1.5,South,4.6,-,N/A,,Overcast,180,2013-01-31 00:51:00
8:03 PM,51.8,51.8,100,29.52,2.0,South,4.6,-,N/A,,Overcast,180,2013-01-31 01:03:00
8:42 PM,53.6,51.8,94,29.50,3.0,South,5.8,-,N/A,,Overcast,190,2013-01-31 01:42:00
8:51 PM,54.0,53.1,97,29.49,2.0,South,6.9,-,N/A,,Overcast,180,2013-01-31 01:51:00
8:58 PM,53.6,53.6,100,29.49,1.2,South,5.8,-,N/A,,Overcast,170,2013-01-31 01:58:00
9:06 PM,53.6,53.6,100,29.48,1.8,South,10.4,16.1,N/A,,Overcast,180,2013-01-31 02:06:00
9:08 PM,53.6,53.6,100,29.48,2.0,South,9.2,16.1,N/A,,Overcast,170,2013-01-31 02:08:00
9:12 PM,53.6,53.6,100,29.47,1.5,South,9.2,16.1,N/A,,Overcast,170,2013-01-31 02:12:00
9:27 PM,55.4,53.6,94,29.48,2.0,South,6.9,17.3,N/A,,Overcast,190,2013-01-31 02:27:00
9:29 PM,55.4,53.6,94,29.48,4.0,Variable,3.5,17.3,N/A,,Overcast,0,2013-01-31 02:29:00
9:51 PM,55.0,54.0,96,29.47,6.0,Variable,4.6,-,N/A,,Overcast,0,2013-01-31 02:51:00
10:47 PM,53.6,53.6,100,29.47,7.0,Variable,3.5,-,N/A,,Overcast,0,2013-01-31 03:47:00
10:51 PM,55.0,53.1,93,29.46,7.0,Calm,Calm,-,N/A,,Overcast,0,2013-01-31 03:51:00